Regional Weather Roundup
Issued by NWS

Home | Current Version | Previous Version | Graphics & Text | Print | Product List | Glossary On
Versions: 1 2 3 4 5 6 7 8 9 10 11 12 13 14 15 16 17 18 19 20 21 22 23 24 25 26 27 28 29 30 31 32 33 34 35 36 37 38 39 40 41 42 43 44 45 46 47 48 49 50
000
ASUS45 KABQ 040901
RWRNM
NEW MEXICO REGIONAL WEATHER ROUNDUP
NATIONAL WEATHER SERVICE ALBUQUERQUE NM
300 AM MDT TUE AUG 04 2015

NOTE: "FAIR" MEANS FEW OR NO CLOUDS BELOW 12,000 FEET AGL WITH NO
       SIGNIFICANT WEATHER OR OBSTRUCTIONS TO VISION.

      THIS PRODUCT IS RELEASED AS TWO VERSIONS.  ONE VERSION NEAR
      THE TOP OF THE HOUR CONTAINING PRELIMINARY DATA FROM ALBUQUERQUE
      AND OTHER STATIONS.  A FINAL VERSION WITH ADDITIONAL DATA IS
      ISSUED ABOUT 10 MINUTES AFTER THE HOUR.

NMZ501-503-504-510>518-041000-
NORTHWEST PLATEAU/NORTHCENTRAL MOUNTAINS

CITY           SKY/WX    TMP DP  RH WIND       PRES   REMARKS
FARMINGTON     PTCLDY    66  43  43 NW5       30.18R
SANTA FE       CLEAR     57  49  74 N7        30.20R
TAOS           CLEAR     54  39  58 CALM      30.27S
ANGEL FIRE     FAIR      43  42  95 CALM      30.37S

$$
NMZ402-403-502-505>509-041000-
WESTCENTRAL MOUNTAINS/SOUTHWEST MOUNTAINS

CITY           SKY/WX    TMP DP  RH WIND       PRES   REMARKS
GALLUP         PTCLDY    55  51  86 CALM      30.23R
GRANTS         CLEAR     55  53  92 CALM      30.26S
SILVER CITY      N/A     66  57  72 SE6       30.17S

$$
NMZ407-409-411-412-041000-
SOUTHERN DESERTS

CITY           SKY/WX    TMP DP  RH WIND       PRES   REMARKS
DEMING         PTCLDY    72  58  61 VRB3      30.06F
HOLLOMAN AFB   MOCLDY    75  60  57 S10       30.05R
ALAMOGORDO     MOCLDY    75  57  53 SW12      30.07R
T OR C         MOCLDY    74  59  59 S10       30.10R

$$
NMZ519>523-041000-
CENTRAL VALLEYS/CENTRAL HIGHLANDS

CITY           SKY/WX    TMP DP  RH WIND       PRES   REMARKS
ALBUQUERQUE    PTCLDY    72  49  44 W5        30.14S
DOUBLE EAGLE   CLEAR     64  50  61 CALM      30.18S
MORIARTY ARPT    N/A     55  49  80 NE3       30.20S
CLINES CORNERS CLEAR     62  49  62 NE9       30.24S
BELEN          PTSUNNY   66  47  50 CALM      30.12F
SOCORRO        NOT AVBL

$$
NMZ524>526-539-540-041000-
SOUTHCENTRAL MOUNTAINS

CITY           SKY/WX    TMP DP  RH WIND       PRES   REMARKS
RUIDOSO          N/A    N/A N/A N/A MISG        N/A

$$
NMZ527>531-041000-
NORTHEAST HIGHLANDS/NORTHEAST PLAINS

CITY           SKY/WX    TMP DP  RH WIND       PRES   REMARKS
RATON          CLEAR     56  54  93 N6        30.20S
CLAYTON        PTCLDY    62  58  86 SW7       30.13R

$$
NMZ532>537-041000-
EASTCENTRAL PLAINS

CITY           SKY/WX    TMP DP  RH WIND       PRES   REMARKS
TUCUMCARI      CLEAR     68  63  84 E9        30.05S
CANNON AFB     CLEAR     65  62  90 S9        30.05F
CLOVIS AIRPORT PTCLDY    64  61  88 S7        30.06F

$$
NMZ028-029-538-041000-
SOUTHEAST PLAINS

CITY           SKY/WX    TMP DP  RH WIND       PRES   REMARKS
ROSWELL        CLEAR     67  63  87 S6        30.01F
ARTESIA        CLEAR     68  68 100 S7        30.02S
CARLSBAD       CLEAR     71  63  75 S3        30.00F
HOBBS            N/A    N/A N/A N/A MISG        N/A


$$



USA.gov is the U.S. government's official web portal to all federal, state and local government web resources and services.